logo
Search for airport 
image banner adimage banner adimage banner ad
image banner ad

LODV - Lkh Weststeiermark Standort Voitsberg Lkh

Located in District Voitsberg, Austria

ICAO - , IATA -

Data provided by Airmate  

General information

Coordinates: N47°3'8" E15°8'22"
Elevation is 1322 feet MSL.
 
View others Airports in Styria

Operational data

Special qualification required
Current time UTC:
Current local time:
Weather at : LOWG - Graz ( 24 km )
METAR: LOWG 180150Z AUTO VRB01KT 9999 NCD 16/15 Q1017
TAF: TAF LOWG 172315Z 1800/1824 VRB03KT 9999 FEW040 TX28/1814Z TN15/1803Z TEMPO 1811/1818 15010KT
View NOTAMs / SUP AIP / TFR affecting this airport [VIEW]
Communications frequencies: [VIEW]

Runways:

Airport contact information

Address: District Voitsberg Austria

Satellite view of LODV